Regional Weather Roundup
Issued by NWS Charleston, WV

Home | Current Version | Previous Version | Graphics & Text | Print | Product List | Glossary On
Versions: 1 2 3 4 5 6 7 8 9 10 11 12 13 14 15 16 17 18 19 20 21 22 23 24 25 26 27 28 29 30 31 32 33 34 35 36 37 38 39 40 41 42 43 44 45 46 47 48 49 50
296
ASUS41 KRLX 211210
RWRRLX
West Virginia Regional Weather Roundup
National Weather Service Charleston WV
Issued by National Weather Service Pittsburgh PA
700 AM EST TUE FEB 21 2017

Note: "fair" indicates few or no clouds below 12,000 feet with no
significant weather and/or obstructions to visibility.

WVZ003-211300-
Northern Panhandle of West Virginia

CITY           SKY/WX    TMP DP  RH WIND       PRES   REMARKS
WHEELING       PTCLDY    50  32  50 SE8       30.06S
$$

WVZ009-211300-
Northwest West Virginia

CITY           SKY/WX    TMP DP  RH WIND       PRES   REMARKS
PARKERSBURG    MOCLDY    41  36  82 VRB5      30.09S
$$

WVZ006-211300-
Western West Virginia

CITY           SKY/WX    TMP DP  RH WIND       PRES   REMARKS
HUNTINGTON     MOCLDY    46  39  76 CALM      30.07S
$$

WVZ015-211300-
West Central West Virginia

CITY           SKY/WX    TMP DP  RH WIND       PRES   REMARKS
CHARLESTON     MOCLDY    50  38  63 CALM      30.09S
$$

WVZ031-211300-
North Central West Virginia

CITY           SKY/WX    TMP DP  RH WIND       PRES   REMARKS
CLARKSBURG     CLOUDY    41  34  76 CALM      30.10R
MORGANTOWN     CLOUDY    49  31  49 SE7       30.11F
$$

WVZ035-042-211300-
South Central West Virginia

CITY           SKY/WX    TMP DP  RH WIND       PRES   REMARKS
BECKLEY        PTCLDY    51  35  54 SE14G21   30.16R
BLUEFIELD      CLOUDY    51  37  58 S8G18     30.18R
$$

WVZ045-211300-
Greenbrier Valley of West Virginia

CITY           SKY/WX    TMP DP  RH WIND       PRES   REMARKS
LEWISBURG      PTCLDY    44  33  65 CALM      30.21S
$$

WVZ047-211300-
Northern Mountains of West Virginia

CITY           SKY/WX    TMP DP  RH WIND       PRES   REMARKS
ELKINS         CLOUDY    51  32  48 S9        30.15S
$$

WVZ052-211300-
Eastern Panhandle of West Virginia

CITY           SKY/WX    TMP DP  RH WIND       PRES   REMARKS
MARTINSBURG    CLOUDY    38  21  50 E3        30.29S
PETERSBURG     PTCLDY    35  34  96 CALM      30.24F
$$




USA.gov is the U.S. government's official web portal to all federal, state and local government web resources and services.